Location: Napa Junction
(38.1874°N, 122.2508°W)
Time: 00:02:57
(UTC+00:00)

CENTAUR R/B - Pass Details

Date: 09 December 2024
Orbit: 654 x 1528 km, 63.4° (Epoch: 19 January)

Event Time Altitude Azimuth Distance (km) Brightness Sun altitude
Rises 14:23:13 0° 213° (SSW) 3,139 5.1 -9.9°
Reaches altitude 10° 14:25:23 10° 214° (SW) 2,298 4.3 -9.5°
Maximum altitude 14:30:39 83° 302° (WNW) 886 2.3 -8.6°
Drops below altitude 10° 14:37:14 10° 32° (NNE) 2,848 5.1 -7.4°
Sets 14:40:11 0° 33° (NNE) 3,950 5.8 -6.9°
